Wind_Speed
2 3 6 7 6 0 2 1 2 4 4 5 7 7 6 12 11 14 25 29 32 33 32 31 32 34 33 32 32 34 34 34 33 34 34 34 33 31 30 30 30 29 28 27
4 5 9 3 6 4 2 2 4 4 2 3 5 8 7 9 9 22 24 26 22 27 33 35 32 32 36 35 35 35 36 34 37 38 38 37 36 36 34 32 32 33 32 29
4 5 3 3 2 3 3 4 3 4 3 1 2 7 2 5 9 12 19 19 18 17 23 24 28 32 33 36 37 37 37 38 34 39 41 41 41 41 39 39 36 36 36 33
5 6 4 4 4 5 3 6 6 2 4 2 2 4 5 4 5 6 15 20 24 24 19 17 22 27 29 31 33 35 37 39 40 33 43 44 43 42 40 41 38 37 39 38
6 3 4 4 5 5 7 2 3 4 4 2 2 3 6 3 5 8 11 19 21 23 23 26 26 29 32 28 29 30 38 41 43 43 38 41 45 42 39 38 40 40 41 40
6 2 5 5 3 6 4 5 8 5 3 3 4 4 5 4 8 4 7 13 16 18 17 18 18 21 25 31 31 31 36 41 44 46 47 45 41 44 42 39 37 38 39 44
6 2 3 4 3 2 4 6 3 3 3 5 4 3 8 5 7 6 9 11 10 9 10 8 10 15 20 24 29 31 33 38 41 47 50 51 49 47 47 43 36 33 38 38
1 6 2 2 5 5 2 6 5 2 2 4 1 4 6 6 12 14 14 11 11 12 8 6 8 10 13 15 19 23 28 33 37 41 44 48 52 52 47 46 40 32 37 36
2 5 5 3 2 4 3 1 4 6 4 2 3 7 10 4 3 5 12 15 17 15 10 8 8 8 6 7 10 16 21 25 28 30 31 35 41 42 44 43 39 37 37 38
5 3 2 6 1 5 2 4 3 4 1 3 5 5 6 5 7 5 7 19 21 17 12 7 5 4 4 7 8 11 16 19 22 24 22 22 23 27 34 37 37 39 37 38
5 3 6 3 4 1 5 3 6 5 4 5 1 6 7 7 7 9 13 22 22 20 14 11 8 6 9 8 8 13 17 19 21 22 22 23 23 25 27 31 34 33 34 38
5 5 1 7 2 1 2 1 4 5 4 1 3 6 2 7 11 17 21 21 23 20 16 11 9 10 12 11 11 13 15 16 18 21 24 26 28 28 27 27 28 29 32 37
7 2 3 9 7 4 4 2 5 5 3 4 4 6 3 8 9 12 17 18 23 22 17 14 12 14 16 13 11 12 12 13 15 19 23 25 26 24 22 21 22 22 23 20
7 4 6 6 7 3 4 3 3 4 3 3 6 7 12 10 10 13 19 21 21 21 18 15 17 18 18 16 14 14 15 14 15 18 20 22 22 23 20 17 17 21 17 10
4 3 5 5 6 4 5 7 5 7 6 5 8 7 12 10 10 19 17 17 18 18 18 18 19 20 20 18 18 19 19 17 17 18 20 21 19 14 14 15 17 17 24 20
2 2 3 4 4 5 6 8 6 7 5 7 6 8 10 19 12 10 16 18 20 21 18 18 19 22 22 20 21 21 22 19 19 18 19 20 15 11 11 13 14 17 19 18
3 6 4 7 3 5 8 8 7 6 6 6 6 10 3 5 8 17 22 24 23 19 17 19 21 21 20 20 19 21 23 23 21 20 18 18 13 11 16 15 12 15 15 16
6 5 3 3 3 4 8 5 6 7 8 7 7 8 8 12 19 22 22 20 19 18 17 18 18 16 16 17 18 21 23 24 21 21 18 17 14 9 12 14 13 14 12 11
3 5 2 3 4 6 6 6 5 3 7 5 7 8 4 3 8 16 20 20 19 17 16 17 17 17 17 17 19 22 23 23 22 21 19 15 11 11 14 16 14 13 13 16
6 5 4 3 2 5 5 8 14 3 4 5 5 7 5 8 2 9 16 19 19 19 19 20 21 20 20 20 20 22 21 22 24 19 17 15 10 11 15 16 16 16 18 13
1 2 3 3 4 6 6 17 9 4 6 26 19 20 14 6 13 2 7 8 19 23 23 25 25 25 22 20 22 23 23 23 20 18 17 15 13 10 14 16 17 16 17 16
6 4 4 2 1 5 6 6 3 6 21 24 23 20 18 25 13 8 13 11 12 16 22 27 26 25 24 23 25 25 26 23 18 19 18 16 14 11 12 12 14 15 15 16
2 6 4 7 6 3 7 6 18 22 21 25 21 21 15 16 17 13 14 15 16 21 25 24 25 28 27 27 27 28 27 22 21 21 21 17 15 13 13 13 14 14 15 14
2 2 1 2 3 6 19 14 22 28 24 22 19 17 11 13 13 16 18 19 21 22 23 23 24 25 28 31 28 28 27 22 22 22 22 19 17 16 15 15 15 14 17 17
3 3 0 5 8 16 9 21 23 27 24 24 21 18 16 15 17 18 20 21 20 20 23 25 28 30 30 29 31 29 26 22 25 21 20 21 18 19 17 17 19 19 19 18
4 1 0 5 18 11 19 27 19 13 15 14 12 11 9 10 11 12 15 17 18 20 22 23 24 25 26 29 30 30 31 27 25 23 21 24 22 21 21 20 20 21 21 22
Wind_Direction
47 37 249 212 210 34 117 203 241 259 217 173 235 267 241 215 207 220 222 227 230 235 240 239 235 240 243 243 242 238 233 230 223 221 220 221 222 223 225 228 226 227 230 236
5 261 267 261 199 192 184 267 259 275 256 155 304 273 259 193 228 225 232 232 231 244 246 246 248 246 246 247 248 246 239 236 233 228 229 229 230 228 233 233 230 230 232 239
197 261 51 186 232 230 226 210 219 218 62 119 28 304 161 231 224 224 231 233 234 254 253 252 247 249 250 247 246 247 245 240 243 239 233 234 234 235 236 236 236 238 239 237
233 269 237 278 271 160 302 207 224 170 117 216 33 276 304 310 268 232 244 242 245 256 260 257 251 244 245 252 247 249 247 244 243 242 239 239 240 242 244 239 241 243 238 235
264 202 236 251 232 149 234 34 172 102 92 34 331 60 271 324 267 260 257 256 260 265 263 262 256 250 252 256 257 256 248 246 244 243 244 244 242 250 249 248 249 253 249 242
244 277 195 220 235 175 106 58 39 51 72 356 283 154 277 199 214 255 260 256 262 271 274 271 265 261 256 256 259 259 255 251 245 245 245 245 248 249 248 249 257 260 259 250
319 228 263 215 309 110 90 69 344 1 10 225 292 122 252 266 248 227 224 247 246 259 266 282 283 276 266 261 261 264 262 259 254 249 248 246 248 250 250 252 260 262 263 259
25 342 212 205 207 201 109 149 158 229 222 270 191 222 256 226 279 236 237 224 242 250 259 291 303 300 290 285 276 277 274 268 265 260 259 256 254 251 254 256 257 263 264 268
156 275 309 221 278 138 175 220 165 103 12 33 276 294 305 304 297 163 217 218 236 237 246 246 276 294 314 319 313 303 300 295 286 279 277 274 268 260 255 258 260 259 263 263
187 325 297 286 40 41 136 149 33 14 154 288 299 294 243 295 254 192 224 226 234 230 232 216 202 215 290 302 300 304 297 297 300 304 303 295 287 276 263 263 263 260 258 257
130 132 286 357 21 294 7 18 50 114 121 169 240 271 217 245 257 242 233 231 231 216 209 184 195 240 270 271 279 280 286 294 302 305 306 300 290 279 270 264 265 263 250 251
183 139 286 248 286 261 262 117 117 108 275 106 146 271 242 271 266 249 238 229 221 208 197 197 216 251 266 257 268 282 288 291 292 294 298 297 293 287 278 268 264 262 258 258
183 17 20 347 356 12 49 1 94 101 81 206 141 264 303 321 302 256 241 224 204 197 199 212 234 258 265 258 275 283 292 297 302 300 302 303 301 294 284 277 275 262 227 255
119 124 156 188 209 176 288 255 149 127 119 210 230 279 301 293 271 267 240 214 193 195 205 222 245 259 266 267 281 288 292 298 304 306 310 307 304 296 287 280 274 232 219 256
103 179 175 242 223 197 238 249 208 196 210 185 257 212 265 263 251 252 239 199 196 208 220 237 254 267 270 278 286 291 293 291 301 305 314 313 309 303 286 273 258 249 235 258
23 202 172 282 279 198 270 275 252 235 230 245 247 270 238 279 264 212 207 203 214 223 235 253 267 271 273 285 286 292 289 286 292 298 308 311 303 267 262 262 259 242 242 231
125 140 131 248 360 3 304 244 222 233 211 181 216 242 271 270 225 216 211 214 222 234 249 262 271 275 275 281 287 291 287 282 284 291 306 308 290 249 251 249 245 239 253 230
143 118 126 243 47 245 257 253 232 242 275 237 277 263 227 250 236 224 224 230 235 240 249 256 262 269 278 285 286 291 281 279 279 288 300 303 283 248 244 242 247 234 247 216
96 121 117 170 200 290 323 10 344 325 290 296 250 281 317 211 211 241 235 235 239 245 255 266 271 273 275 285 285 291 285 277 275 283 294 299 277 250 245 249 230 237 232 233
72 65 124 115 203 242 243 291 321 148 283 304 260 268 194 145 154 250 246 236 242 249 258 270 274 276 268 281 281 291 286 277 274 279 286 290 279 247 246 242 237 233 224 236
356 1 195 170 225 290 260 308 334 46 256 317 313 278 199 205 217 179 29 280 265 265 269 269 273 274 276 275 278 283 281 274 283 270 272 276 276 263 236 235 235 229 235 234
186 172 217 104 190 277 343 1 26 266 311 311 307 293 253 236 243 299 313 293 295 286 279 274 277 278 281 275 275 278 279 284 278 262 262 262 263 253 233 223 224 226 222 214
263 190 198 173 216 226 334 300 338 337 303 309 303 298 281 268 275 281 285 297 302 306 301 299 290 282 284 276 273 274 286 283 280 267 260 250 250 239 221 214 212 211 207 197
269 168 194 36 299 299 325 302 331 332 327 309 303 311 297 276 277 284 296 304 305 303 297 297 290 283 286 288 278 281 281 276 275 270 266 240 239 231 222 212 214 203 197 197
233 4 316 275 289 319 317 313 310 319 312 314 296 295 299 300 297 301 301 302 301 302 298 298 294 291 286 285 280 276 277 271 265 263 259 248 234 230 229 221 217 210 209 214
7 9 31 246 289 297 287 315 329 354 5 359 347 335 350 347 336 322 311 308 305 301 303 302 301 301 299 284 278 278 273 269 265 248 250 241 233 226 224 222 219 215 213 217
Height
1516 1521 1525 1518 1515 1514 1515 1518 1521 1514 1507 1512 1513 1512 1507 1507 1509 1512 1511 1510 1515 1516 1518 1522 1525 1525 1528 1530 1532 1534 1536 1539 1542 1542 1543 1545 1545 1547 1549 1551 1553 1555 1557 1558
1519 1523 1505 1507 1510 1512 1515 1519 1521 1511 1506 1510 1511 1511 1505 1505 1505 1506 1506 1508 1512 1511 1512 1516 1519 1522 1522 1524 1526 1528 1531 1533 1534 1536 1538 1540 1541 1542 1544 1546 1547 1549 1551 1553
1522 1510 1502 1505 1507 1512 1515 1518 1517 1515 1508 1508 1512 1516 1510 1504 1505 1503 1503 1505 1506 1505 1506 1510 1513 1515 1516 1516 1517 1520 1523 1526 1528 1530 1533 1535 1537 1537 1538 1539 1541 1543 1546 1548
1517 1505 1503 1504 1507 1508 1521 1502 1505 1509 1519 1533 1515 1544 1513 1504 1501 1499 1498 1499 1501 1501 1504 1505 1506 1507 1508 1508 1512 1514 1516 1519 1521 1524 1525 1526 1527 1528 1528 1531 1535 1537 1539 1541
1512 1506 1507 1509 1503 1500 1506 1497 1505 1509 1523 1524 1525 1538 1518 1507 1500 1495 1492 1493 1495 1496 1499 1499 1500 1502 1504 1506 1508 1510 1511 1513 1515 1517 1518 1519 1521 1522 1526 1527 1529 1533 1535 1537
1506 1500 1501 1499 1493 1496 1498 1506 1514 1523 1532 1551 1531 1532 1522 1511 1497 1492 1488 1490 1491 1492 1493 1494 1497 1499 1501 1503 1503 1504 1505 1506 1509 1511 1512 1513 1516 1517 1520 1523 1526 1528 1530 1531
1507 1501 1495 1494 1498 1497 1502 1520 1549 1548 1555 1552 1532 1534 1515 1494 1489 1487 1486 1487 1488 1490 1491 1492 1494 1496 1498 1499 1499 1500 1501 1502 1504 1506 1506 1509 1510 1512 1515 1517 1521 1523 1522 1522
1529 1525 1496 1491 1494 1499 1502 1514 1543 1546 1558 1547 1527 1536 1507 1484 1481 1483 1485 1485 1486 1488 1489 1491 1493 1494 1495 1496 1498 1498 1498 1498 1500 1501 1502 1504 1504 1506 1509 1511 1515 1516 1515 1515
1529 1519 1493 1491 1489 1492 1503 1515 1510 1542 1548 1548 1537 1517 1492 1481 1480 1482 1483 1483 1484 1486 1488 1490 1492 1494 1494 1495 1496 1496 1495 1495 1495 1496 1497 1498 1498 1499 1501 1503 1505 1509 1508 1508
1511 1526 1500 1493 1490 1492 1494 1502 1522 1536 1542 1544 1545 1534 1521 1490 1484 1482 1481 1480 1481 1485 1487 1488 1492 1493 1494 1495 1495 1495 1494 1493 1492 1491 1490 1490 1491 1491 1493 1494 1495 1497 1499 1500
1506 1518 1510 1498 1502 1506 1507 1511 1524 1529 1540 1552 1559 1536 1495 1489 1485 1482 1479 1478 1479 1482 1485 1487 1490 1491 1493 1493 1493 1493 1492 1491 1490 1488 1486 1485 1484 1484 1484 1484 1485 1486 1488 1490
1502 1519 1526 1512 1500 1502 1502 1504 1517 1536 1535 1551 1552 1535 1487 1486 1481 1477 1474 1475 1476 1481 1485 1486 1487 1489 1490 1491 1490 1490 1489 1488 1487 1485 1483 1481 1479 1477 1475 1474 1476 1478 1481 1481
1499 1521 1540 1528 1514 1503 1508 1505 1517 1525 1533 1539 1545 1528 1483 1480 1477 1473 1472 1472 1474 1478 1481 1483 1485 1487 1487 1488 1488 1487 1486 1485 1484 1481 1478 1475 1472 1469 1468 1469 1471 1471 1475 1478
1491 1520 1522 1541 1522 1513 1512 1505 1506 1516 1534 1531 1530 1509 1491 1480 1476 1470 1469 1469 1472 1476 1479 1481 1483 1484 1484 1484 1485 1484 1482 1481 1480 1478 1474 1471 1468 1464 1464 1465 1466 1467 1471 1472
1496 1512 1515 1510 1509 1508 1507 1505 1504 1512 1509 1516 1505 1511 1489 1476 1470 1465 1468 1471 1473 1476 1477 1478 1480 1481 1481 1481 1481 1480 1478 1477 1475 1473 1470 1467 1464 1461 1460 1461 1462 1464 1466 1469
1498 1511 1513 1508 1500 1508 1508 1501 1501 1503 1499 1504 1500 1500 1472 1467 1466 1464 1467 1470 1472 1472 1474 1476 1477 1477 1477 1477 1476 1475 1473 1472 1470 1468 1466 1462 1460 1458 1458 1459 1460 1463 1464 1465
1498 1511 1521 1525 1508 1508 1516 1499 1492 1486 1483 1484 1495 1477 1468 1466 1464 1463 1463 1464 1466 1469 1472 1473 1473 1474 1473 1472 1472 1469 1468 1466 1465 1462 1460 1457 1455 1455 1455 1456 1458 1460 1461 1460
1503 1511 1520 1524 1515 1531 1490 1478 1478 1483 1479 1475 1473 1467 1464 1462 1460 1461 1463 1464 1466 1467 1469 1470 1470 1470 1469 1468 1467 1465 1463 1461 1460 1457 1456 1454 1451 1451 1452 1453 1454 1456 1458 1458
1494 1508 1520 1523 1530 1508 1486 1484 1485 1485 1484 1469 1470 1463 1463 1463 1462 1459 1459 1462 1464 1466 1467 1468 1467 1466 1465 1464 1463 1461 1459 1457 1456 1454 1452 1450 1448 1449 1449 1450 1450 1452 1455 1456
1498 1502 1509 1530 1520 1520 1497 1480 1476 1476 1493 1469 1466 1463 1464 1463 1473 1459 1459 1461 1462 1463 1464 1464 1463 1462 1461 1459 1458 1456 1454 1452 1450 1449 1448 1446 1446 1446 1446 1447 1448 1449 1451 1454
1506 1510 1511 1523 1520 1506 1486 1478 1473 1494 1495 1469 1466 1462 1461 1463 1457 1459 1459 1461 1461 1461 1460 1459 1458 1457 1456 1455 1453 1451 1448 1445 1445 1445 1443 1443 1442 1442 1442 1443 1445 1446 1447 1450
1501 1508 1514 1520 1515 1512 1481 1477 1487 1482 1472 1468 1464 1460 1460 1457 1456 1457 1458 1458 1458 1457 1456 1455 1453 1452 1452 1450 1447 1445 1442 1441 1441 1439 1439 1439 1438 1439 1439 1440 1441 1442 1444 1446
1504 1494 1500 1500 1499 1482 1482 1481 1478 1474 1470 1466 1463 1460 1458 1458 1457 1457 1456 1455 1454 1452 1451 1450 1447 1446 1445 1443 1440 1438 1436 1438 1438 1436 1434 1434 1435 1435 1437 1438 1439 1439 1442 1444
1487 1487 1492 1490 1484 1481 1479 1476 1474 1471 1467 1464 1462 1460 1457 1455 1455 1454 1453 1452 1451 1450 1448 1445 1442 1438 1437 1435 1433 1432 1430 1431 1431 1430 1430 1430 1431 1432 1432 1434 1436 1438 1440 1443
1491 1489 1492 1492 1482 1479 1476 1474 1471 1468 1464 1461 1458 1458 1456 1455 1453 1451 1450 1448 1446 1444 1442 1439 1436 1433 1429 1427 1426 1424 1423 1425 1422 1425 1424 1425 1425 1427 1428 1430 1433 1435 1438 1441
1492 1493 1495 1495 1481 1481 1475 1471 1469 1464 1461 1459 1457 1455 1455 1453 1452 1450 1447 1445 1442 1439 1437 1433 1429 1425 1422 1419 1416 1417 1417 1416 1417 1416 1417 1417 1418 1420 1422 1425 1428 1431 1434 1437